N5CSU Weather Reports


time (UTC)temp
C
wind
direction
speed
KPH
gust
KPH
rain 1hr
cm
rain 24hr
cm
rain mn
cm
humidity
%
barometer
mb
20260906005348 32 184 0.0 0.0 0.00 0.00 0.00 57 1011.5
20260906004847 32 205 0.0 0.0 0.00 0.00 0.00 57 1011.6
20260906004342 32 187 0.0 0.0 0.00 0.00 0.00 56 1011.7
20260906003837 33 183 1.6 1.6 0.00 0.00 0.00 55 1011.4
20260906003332 33 207 0.0 0.0 0.00 0.00 0.00 53 1011.3
20260906002828 33 203 1.6 1.6 0.00 0.00 0.00 52 1011.4
20260906002327 34 192 4.8 12.9 0.00 0.00 0.00 51 1011.3
20260906001823 34 190 0.0 0.0 0.00 0.00 0.00 51 1011.4
20260906001318 34 193 0.0 0.0 0.00 0.00 0.00 51 1011.2
20260906000813 35 169 1.6 1.6 0.00 0.00 0.00 51 1011.1
20260906000308 35 169 3.2 3.2 0.00 0.00 0.00 50 1011.0
20260905235803 35 190 0.0 1.6 0.00 0.00 0.00 48 1011.0
20260905235306 35 192 0.0 0.0 0.00 0.00 0.00 47 1011.1
20260905234758 35 196 0.0 0.0 0.00 0.00 0.00 46 1010.9
20260905234253 35 191 0.0 0.0 0.00 0.00 0.00 45 1010.8
20260905233749 36 198 0.0 0.0 0.00 0.00 0.00 45 1010.8
20260905233248 36 176 0.0 0.0 0.00 0.00 0.00 45 1010.7
20260905232748 36 180 0.0 1.6 0.00 0.00 0.00 45 1010.7
20260905232244 36 204 0.0 0.0 0.00 0.00 0.00 44 1010.6
20260905231739 36 190 0.0 0.0 0.00 0.00 0.00 44 1010.7
20260905231234 36 207 0.0 0.0 0.00 0.00 0.00 44 1010.9
20260905230731 36 189 0.0 0.0 0.00 0.00 0.00 43 1010.8
20260905230228 36 180 0.0 0.0 0.00 0.00 0.00 45 1010.8
20260905225727 36 191 0.0 0.0 0.00 0.00 0.00 44 1010.7
20260905225223 36 192 0.0 0.0 0.00 0.00 0.00 44 1010.7
20260905224722 36 197 0.0 0.0 0.00 0.00 0.00 45 1010.6
20260905224217 36 193 0.0 0.0 0.00 0.00 0.00 46 1010.7
20260905223714 36 186 0.0 0.0 0.00 0.00 0.00 45 1010.8
20260905223210 35 195 0.0 0.0 0.00 0.00 0.00 46 1010.7
20260905222706 35 192 0.0 0.0 0.00 0.00 0.00 46 1010.6
20260905222205 36 181 0.0 0.0 0.00 0.00 0.00 46 1010.6
20260905221700 36 193 0.0 0.0 0.00 0.00 0.00 45 1010.6
20260905221157 36 201 0.0 1.6 0.00 0.00 0.00 45 1010.8
20260905220653 36 178 0.0 0.0 0.00 0.00 0.00 44 1011.0
20260905220149 37 189 0.0 0.0 0.00 0.00 0.00 43 1010.8
20260905215643 37 208 0.0 0.0 0.00 0.00 0.00 43 1010.8
20260905215139 37 173 0.0 0.0 0.00 0.00 0.00 42 1010.8
20260905214635 37 199 0.0 0.0 0.00 0.00 0.00 42 1010.9
20260905214135 37 219 0.0 0.0 0.00 0.00 0.00 42 1010.9
20260905213630 37 200 0.0 0.0 0.00 0.00 0.00 42 1011.1
20260905213125 37 196 0.0 0.0 0.00 0.00 0.00 42 1011.1
20260905212620 37 9 0.0 1.6 0.00 0.00 0.00 42 1011.1
20260905212120 37 184 1.6 3.2 0.00 0.00 0.00 42 1011.1
20260905211615 37 190 1.6 1.6 0.00 0.00 0.00 42 1011.1
20260905211110 37 190 0.0 0.0 0.00 0.00 0.00 42 1011.2
20260905210607 37 187 3.2 3.2 0.00 0.00 0.00 42 1011.1
20260905210056 37 208 0.0 0.0 0.00 0.00 0.00 41 1011.3
20260905205555 36 209 1.6 1.6 0.00 0.00 0.00 42 1011.6
20260905205054 36 188 0.0 0.0 0.00 0.00 0.00 44 1011.4
20260905204549 36 194 0.0 0.0 0.00 0.00 0.00 44 1011.4
20260905204044 35 159 1.6 1.6 0.00 0.00 0.00 45 1011.6
20260905203544 35 200 0.0 0.0 0.00 0.00 0.00 45 1011.7
20260905203039 35 186 0.0 1.6 0.00 0.00 0.00 45 1011.8
20260905202534 36 195 0.0 0.0 0.00 0.00 0.00 46 1011.9
20260905202030 36 193 0.0 0.0 0.00 0.00 0.00 44 1011.9
20260905201526 36 194 0.0 0.0 0.00 0.00 0.00 43 1011.9
20260905201025 36 199 1.6 1.6 0.00 0.00 0.00 43 1011.8
20260905200520 36 18 3.2 4.8 0.00 0.00 0.00 44 1012.1
20260905200015 36 198 0.0 0.0 0.00 0.00 0.00 43 1012.1
20260905195509 36 184 1.6 1.6 0.00 0.00 0.00 44 1012.1
20260905195004 36 208 0.0 0.0 0.00 0.00 0.00 44 1012.4
20260905194504 36 130 0.0 0.0 0.00 0.00 0.00 44 1012.5
20260905194004 36 204 0.0 0.0 0.00 0.00 0.00 44 1012.3
20260905193504 36 188 0.0 1.6 0.00 0.00 0.00 46 1012.6
20260905192959 36 115 0.0 0.0 0.00 0.00 0.00 46 1012.7
20260905192454 35 175 3.2 3.2 0.00 0.00 0.00 45 1012.8
20260905191951 35 156 1.6 3.2 0.00 0.00 0.00 45 1013.0
20260905191450 35 198 0.0 0.0 0.00 0.00 0.00 47 1013.0
20260905190949 35 202 0.0 0.0 0.00 0.00 0.00 46 1013.2
20260905190447 35 189 0.0 0.0 0.00 0.00 0.00 46 1013.2
20260905185946 35 189 0.0 0.0 0.00 0.00 0.00 47 1013.1
20260905185441 35 185 0.0 0.0 0.00 0.00 0.00 48 1013.4
20260905184940 35 185 0.0 0.0 0.00 0.00 0.00 47 1013.3
20260905184440 35 201 0.0 0.0 0.00 0.00 0.00 46 1013.5
20260905183938 35 191 0.0 0.0 0.00 0.00 0.00 46 1013.5
20260905183433 36 206 0.0 0.0 0.00 0.00 0.00 44 1013.6
20260905182929 36 207 0.0 0.0 0.00 0.00 0.00 43 1013.7
20260905182427 36 45 3.2 3.2 0.00 0.00 0.00 42 1013.9
20260905181923 36 196 0.0 0.0 0.00 0.00 0.00 43 1013.7
20260905181418 36 180 1.6 1.6 0.00 0.00 0.00 44 1014.0
20260905180917 36 188 1.6 1.6 0.00 0.00 0.00 43 1014.0
20260905180412 36 88 1.6 1.6 0.00 0.00 0.00 44 1014.2
20260905175907 35 241 1.6 1.6 0.00 0.00 0.00 45 1014.1
20260905175406 35 204 1.6 1.6 0.00 0.00 0.00 46 1014.2
20260905174901 36 21 3.2 3.2 0.00 0.00 0.00 45 1014.3
20260905174358 36 206 0.0 1.6 0.00 0.00 0.00 45 1014.3
20260905173853 36 195 0.0 1.6 0.00 0.00 0.00 47 1014.5
20260905173349 35 206 0.0 1.6 0.00 0.00 0.00 46 1014.6
20260905172844 35 172 1.6 1.6 0.00 0.00 0.00 47 1014.5
20260905172342 35 204 0.0 0.0 0.00 0.00 0.00 48 1014.7
20260905171838 35 281 0.0 1.6 0.00 0.00 0.00 47 1014.6
20260905171335 35 202 0.0 0.0 0.00 0.00 0.00 50 1014.8
20260905170831 35 205 0.0 0.0 0.00 0.00 0.00 48 1014.8
20260905170327 35 204 0.0 0.0 0.00 0.00 0.00 50 1014.7
20260905165826 35 201 0.0 0.0 0.00 0.00 0.00 51 1015.0
20260905165321 35 200 0.0 0.0 0.00 0.00 0.00 50 1014.9
20260905164821 35 175 1.6 1.6 0.00 0.00 0.00 50 1014.9
20260905164315 34 198 0.0 0.0 0.00 0.00 0.00 51 1014.9
20260905163811 35 59 1.6 1.6 0.00 0.00 0.00 49 1015.1
20260905163307 34 200 0.0 0.0 0.00 0.00 0.00 51 1015.0
20260905162803 34 209 0.0 1.6 0.00 0.00 0.00 52 1015.0
20260905162305 34 201 0.0 1.6 0.00 0.00 0.00 53 1015.1
20260905161757 34 196 0.0 0.0 0.00 0.00 0.00 52 1015.0
20260905161256 33 188 1.6 3.2 0.00 0.00 0.00 54 1015.0
20260905160754 33 144 1.6 1.6 0.00 0.00 0.00 55 1015.1
20260905160249 33 220 0.0 0.0 0.00 0.00 0.00 55 1015.2
20260905155744 32 228 0.0 0.0 0.00 0.00 0.00 53 1015.1
20260905155243 32 196 0.0 1.6 0.00 0.00 0.00 59 1015.0
20260905154737 32 187 0.0 0.0 0.00 0.00 0.00 60 1014.9
20260905154233 31 155 0.0 0.0 0.00 0.00 0.00 64 1014.9
20260905153728 31 184 0.0 0.0 0.00 0.00 0.00 64 1014.8
20260905153224 31 185 0.0 0.0 0.00 0.00 0.00 66 1015.1
20260905152719 31 180 0.0 0.0 0.00 0.00 0.00 67 1015.1
20260905152213 31 196 0.0 0.0 0.00 0.00 0.00 68 1015.0
20260905151713 31 181 0.0 0.0 0.00 0.00 0.00 68 1015.1
20260905151209 30 195 0.0 0.0 0.00 0.00 0.00 69 1015.1
20260905150704 30 196 0.0 0.0 0.00 0.00 0.00 71 1014.8
20260905150203 30 194 0.0 0.0 0.00 0.00 0.00 71 1014.8
20260905145701 30 186 0.0 0.0 0.00 0.00 0.00 71 1014.9
20260905145201 30 194 0.0 0.0 0.00 0.00 0.00 72 1014.8
20260905144655 30 187 0.0 0.0 0.00 0.00 0.00 72 1014.8
20260905144154 29 196 0.0 0.0 0.00 0.00 0.00 74 1014.7
20260905143648 29 186 0.0 0.0 0.00 0.00 0.00 73 1015.0
20260905143143 28 214 0.0 0.0 0.00 0.00 0.00 74 1014.8
20260905142642 28 188 0.0 0.0 0.00 0.00 0.00 76 1014.9
20260905142137 28 210 0.0 0.0 0.00 0.00 0.00 76 1014.9
20260905141636 28 205 0.0 0.0 0.00 0.00 0.00 78 1014.8
20260905141133 28 186 0.0 0.0 0.00 0.00 0.00 77 1014.9
20260905140627 28 203 0.0 0.0 0.00 0.00 0.00 78 1014.8
20260905140127 27 179 0.0 0.0 0.00 0.00 0.00 78 1014.9
20260905135622 27 184 0.0 0.0 0.00 0.00 0.00 79 1015.0
20260905135117 27 185 0.0 0.0 0.00 0.00 0.00 78 1014.8
20260905134612 27 185 0.0 1.6 0.00 0.00 0.00 80 1014.9
20260905134110 26 186 0.0 0.0 0.00 0.00 0.00 82 1014.8
20260905133607 26 208 0.0 0.0 0.00 0.00 0.00 84 1014.9
20260905133106 26 211 0.0 0.0 0.00 0.00 0.00 83 1014.6
20260905132606 26 205 0.0 0.0 0.00 0.00 0.00 86 1014.6
20260905132100 25 204 0.0 0.0 0.00 0.00 0.00 86 1014.5
20260905131556 25 204 0.0 0.0 0.00 0.00 0.00 87 1014.5
20260905131051 25 205 0.0 0.0 0.00 0.00 0.00 88 1014.4
20260905130550 25 205 0.0 0.0 0.00 0.00 0.00 89 1014.5
20260905130046 25 205 0.0 0.0 0.00 0.00 0.00 89 1014.2
20260905125545 24 205 0.0 0.0 0.00 0.00 0.00 90 1014.3
20260905125041 24 208 0.0 0.0 0.00 0.00 0.00 90 1014.2
20260905124537 24 208 0.0 0.0 0.00 0.00 0.00 90 1014.1
20260905124033 24 208 0.0 0.0 0.00 0.00 0.00 90 1014.3
20260905123528 23 208 0.0 0.0 0.00 0.00 0.00 90 1014.2
20260905123026 23 208 0.0 0.0 0.00 0.00 0.00 90 1014.1
20260905122525 23 208 0.0 0.0 0.00 0.00 0.00 90 1014.2
20260905122020 23 208 0.0 0.0 0.00 0.00 0.00 90 1014.2
20260905121514 23 208 0.0 0.0 0.00 0.00 0.00 90 1014.2
20260905121009 23 208 0.0 0.0 0.00 0.00 0.00 90 1014.1
20260905120503 23 208 0.0 0.0 0.00 0.00 0.00 90 1014.4
20260905115958 23 208 0.0 0.0 0.00 0.00 0.00 90 1014.3
20260905115457 23 208 0.0 0.0 0.00 0.00 0.00 90 1014.2
20260905114952 23 208 0.0 0.0 0.00 0.00 0.00 90 1014.2
20260905114451 23 208 0.0 0.0 0.00 0.00 0.00 90 1014.1
20260905113950 24 208 0.0 0.0 0.00 0.00 0.00 90 1014.1
20260905113446 23 209 0.0 0.0 0.00 0.00 0.00 90 1014.1
20260905112941 23 209 0.0 0.0 0.00 0.00 0.00 89 1014.0
20260905112436 24 209 0.0 0.0 0.00 0.00 0.00 90 1014.3
20260905111931 24 209 0.0 0.0 0.00 0.00 0.00 89 1014.0
20260905111425 24 208 0.0 0.0 0.00 0.00 0.00 89 1014.0
20260905110920 24 208 0.0 0.0 0.00 0.00 0.00 89 1014.0
20260905110414 24 208 0.0 0.0 0.00 0.00 0.00 89 1014.0
20260905105909 24 208 0.0 0.0 0.00 0.00 0.00 88 1014.0
20260905105409 24 208 0.0 0.0 0.00 0.00 0.00 88 1014.1
20260905104908 24 208 0.0 0.0 0.00 0.00 0.00 88 1013.8
20260905104404 24 208 0.0 0.0 0.00 0.00 0.00 88 1013.9
20260905103859 24 208 0.0 0.0 0.00 0.00 0.00 88 1013.8
20260905103354 25 208 0.0 0.0 0.00 0.00 0.00 88 1013.8
20260905102850 25 208 0.0 0.0 0.00 0.00 0.00 87 1014.1
20260905102346 25 208 0.0 0.0 0.00 0.00 0.00 87 1013.9
20260905101846 25 208 0.0 0.0 0.00 0.00 0.00 87 1013.8
20260905101344 25 208 0.0 0.0 0.00 0.00 0.00 87 1013.9
20260905100839 25 195 0.0 0.0 0.00 0.00 0.00 85 1013.7
20260905100335 25 186 0.0 0.0 0.00 0.00 0.00 87 1013.7
20260905095834 25 184 0.0 0.0 0.00 0.00 0.00 88 1013.9
20260905095329 25 187 0.0 0.0 0.00 0.00 0.00 87 1013.5
20260905094823 25 208 0.0 0.0 0.00 0.00 0.00 85 1013.7
20260905094319 25 208 1.6 1.6 0.00 0.00 0.00 88 1013.7
20260905093812 25 204 0.0 0.0 0.00 0.00 0.00 85 1013.8
20260905093308 26 203 0.0 0.0 0.00 0.00 0.00 80 1013.7
20260905092804 26 197 0.0 0.0 0.00 0.00 0.00 79 1013.9
20260905092259 26 197 0.0 0.0 0.00 0.00 0.00 79 1013.9
20260905091758 26 197 0.0 0.0 0.00 0.00 0.00 79 1013.8
20260905091253 26 197 0.0 0.0 0.00 0.00 0.00 78 1013.7
20260905090752 26 197 0.0 0.0 0.00 0.00 0.00 78 1013.9
20260905090248 26 197 0.0 0.0 0.00 0.00 0.00 78 1013.5
20260905085747 26 197 0.0 0.0 0.00 0.00 0.00 77 1013.5
20260905085247 26 197 0.0 0.0 0.00 0.00 0.00 77 1013.5
20260905084742 27 197 0.0 0.0 0.00 0.00 0.00 76 1013.7
20260905084242 27 197 0.0 0.0 0.00 0.00 0.00 76 1013.4
20260905083737 27 197 0.0 0.0 0.00 0.00 0.00 75 1013.3
20260905083232 27 197 0.0 0.0 0.00 0.00 0.00 75 1013.4
20260905082728 27 197 0.0 0.0 0.00 0.00 0.00 75 1013.2
20260905082223 27 200 0.0 0.0 0.00 0.00 0.00 75 1013.3
20260905081718 27 198 0.0 0.0 0.00 0.00 0.00 75 1013.3
20260905081214 27 195 0.0 0.0 0.00 0.00 0.00 75 1013.3
20260905080713 27 195 0.0 0.0 0.00 0.00 0.00 74 1013.2
20260905080212 27 197 0.0 0.0 0.00 0.00 0.00 74 1013.2
20260905075712 27 197 0.0 0.0 0.00 0.00 0.00 74 1013.3
20260905075211 27 197 0.0 0.0 0.00 0.00 0.00 74 1013.1
20260905074710 27 197 0.0 0.0 0.00 0.00 0.00 74 1013.3
20260905074206 27 194 0.0 0.0 0.00 0.00 0.00 74 1013.5
20260905073701 27 194 0.0 0.0 0.00 0.00 0.00 74 1013.4
20260905073157 27 201 0.0 0.0 0.00 0.00 0.00 74 1013.4
20260905072656 27 202 0.0 0.0 0.00 0.00 0.00 75 1013.8
20260905072151 27 202 0.0 0.0 0.00 0.00 0.00 75 1013.5
20260905071648 27 197 0.0 0.0 0.00 0.00 0.00 75 1013.9
20260905071143 27 197 0.0 0.0 0.00 0.00 0.00 75 1013.7
20260905070638 27 197 0.0 0.0 0.00 0.00 0.00 75 1013.8
20260905070134 27 197 0.0 0.0 0.00 0.00 0.00 74 1013.9
20260905065633 27 197 0.0 0.0 0.00 0.00 0.00 74 1013.9
20260905065127 27 197 0.0 0.0 0.00 0.00 0.00 74 1013.9
20260905064623 27 197 0.0 0.0 0.00 0.00 0.00 74 1013.9
20260905064118 27 197 0.0 0.0 0.00 0.00 0.00 74 1013.7
20260905063617 27 197 0.0 0.0 0.00 0.00 0.00 73 1013.8
20260905063113 27 197 0.0 0.0 0.00 0.00 0.00 73 1013.9
20260905062609 27 197 0.0 0.0 0.00 0.00 0.00 73 1013.8
20260905062108 28 196 0.0 0.0 0.00 0.00 0.00 72 1013.9
20260905061603 28 196 0.0 0.0 0.00 0.00 0.00 72 1014.0
20260905061102 28 196 0.0 0.0 0.00 0.00 0.00 71 1013.9
20260905060558 28 196 0.0 0.0 0.00 0.00 0.00 71 1014.0
20260905060054 28 198 0.0 0.0 0.00 0.00 0.00 70 1014.0
20260905055552 28 198 0.0 0.0 0.00 0.00 0.00 70 1013.8
20260905055042 28 198 0.0 0.0 0.00 0.00 0.00 69 1013.9
20260905054538 28 198 0.0 0.0 0.00 0.00 0.00 69 1013.7
20260905054033 28 197 0.0 0.0 0.00 0.00 0.00 69 1013.6
20260905053532 29 197 0.0 0.0 0.00 0.00 0.00 68 1013.5
20260905053028 29 197 0.0 0.0 0.00 0.00 0.00 68 1013.6
20260905052527 29 198 0.0 0.0 0.00 0.00 0.00 67 1013.5
20260905052022 29 198 0.0 0.0 0.00 0.00 0.00 67 1013.4
20260905051517 30 198 0.0 0.0 0.00 0.00 0.00 66 1013.4
20260905051014 30 202 0.0 0.0 0.00 0.00 0.00 66 1013.3
20260905050510 30 202 0.0 0.0 0.00 0.00 0.00 66 1013.4
20260905050002 30 208 0.0 0.0 0.00 0.00 0.00 66 1013.4
20260905045455 30 199 0.0 0.0 0.00 0.00 0.00 65 1013.6
20260905044951 30 193 0.0 0.0 0.00 0.00 0.00 65 1013.5
20260905044451 30 198 0.0 0.0 0.00 0.00 0.00 65 1013.4
20260905043945 30 187 0.0 0.0 0.00 0.00 0.00 64 1013.5
20260905043444 30 195 0.0 0.0 0.00 0.00 0.00 64 1013.3
20260905042939 30 205 0.0 0.0 0.00 0.00 0.00 64 1013.3
20260905042433 30 206 0.0 0.0 0.00 0.00 0.00 63 1013.4
20260905041928 30 199 0.0 0.0 0.00 0.00 0.00 63 1013.4
20260905041419 30 207 0.0 0.0 0.00 0.00 0.00 62 1013.4
20260905040919 31 205 0.0 0.0 0.00 0.00 0.00 62 1013.5
20260905040413 31 215 0.0 0.0 0.00 0.00 0.00 62 1013.6
20260905035912 31 209 0.0 0.0 0.00 0.00 0.00 61 1013.4
20260905035407 31 209 0.0 0.0 0.00 0.00 0.00 61 1013.4
20260905034904 31 188 0.0 0.0 0.00 0.00 0.00 60 1013.5
20260905034359 31 205 0.0 0.0 0.00 0.00 0.00 60 1013.5
20260905033857 31 183 0.0 0.0 0.00 0.00 0.00 60 1013.6
20260905033353 31 194 0.0 0.0 0.00 0.00 0.00 60 1013.5
20260905032852 31 207 0.0 0.0 0.00 0.00 0.00 59 1013.4
20260905032348 31 198 0.0 0.0 0.00 0.00 0.00 59 1013.5
20260905031843 31 204 0.0 0.0 0.00 0.00 0.00 59 1013.5
20260905031339 31 203 0.0 0.0 0.00 0.00 0.00 58 1013.4
20260905030833 31 198 0.0 0.0 0.00 0.00 0.00 58 1013.5
20260905030329 31 198 0.0 0.0 0.00 0.00 0.00 58 1013.4
20260905025828 31 196 0.0 0.0 0.00 0.00 0.00 57 1013.4
20260905025324 31 214 0.0 0.0 0.00 0.00 0.00 57 1013.2
20260905024820 31 208 0.0 0.0 0.00 0.00 0.00 56 1013.1
20260905024315 31 201 0.0 0.0 0.00 0.00 0.00 56 1013.1
20260905023805 32 201 0.0 0.0 0.00 0.00 0.00 55 1013.1
20260905023300 32 194 0.0 0.0 0.00 0.00 0.00 55 1013.0
20260905022759 32 207 0.0 0.0 0.00 0.00 0.00 55 1013.0
20260905022255 32 193 0.0 0.0 0.00 0.00 0.00 54 1012.8
20260905021754 32 214 0.0 0.0 0.00 0.00 0.00 54 1012.7
20260905021249 32 203 0.0 0.0 0.00 0.00 0.00 54 1012.6
20260905020744 32 183 0.0 0.0 0.00 0.00 0.00 53 1012.4
20260905020240 32 205 0.0 0.0 0.00 0.00 0.00 54 1012.4
20260905015738 32 203 0.0 0.0 0.00 0.00 0.00 54 1012.4
20260905015233 32 197 0.0 0.0 0.00 0.00 0.00 53 1012.3
20260905014732 32 195 0.0 0.0 0.00 0.00 0.00 53 1012.2
20260905014227 32 203 0.0 0.0 0.00 0.00 0.00 53 1012.2
20260905013723 32 198 0.0 0.0 0.00 0.00 0.00 52 1012.1
20260905013219 32 199 0.0 0.0 0.00 0.00 0.00 52 1012.1
20260905012714 33 197 0.0 0.0 0.00 0.00 0.00 52 1012.0
20260905012210 33 204 0.0 0.0 0.00 0.00 0.00 52 1012.0
20260905011706 33 215 0.0 0.0 0.00 0.00 0.00 51 1012.2
20260905011201 33 123 0.0 0.0 0.00 0.00 0.00 51 1012.1
20260905010656 33 123 0.0 0.0 0.00 0.00 0.00 50 1011.8
20260905010152 33 208 0.0 0.0 0.00 0.00 0.00 50 1011.6
20260905005648 33 204 0.0 0.0 0.00 0.00 0.00 50 1011.7